timestamp,surface_pressure_avg,surface_temp_avg,battery_voltage,lat,long
2020-06-06 00:09:01+00:00,386.4612,9.9,13.29,47.84626,-54.09684
2020-06-06 00:19:01+00:00,379.0512,9.9,12.97,47.84626,-54.09684
2020-06-06 00:29:01+00:00,380.0328,10.0,12.97,47.84626,-54.09684
2020-06-06 00:39:01+00:00,376.1129,9.97,12.97,47.84626,-54.09684
2020-06-06 00:49:01+00:00,367.1046,10.05,12.97,47.84626,-54.09684
2020-06-06 00:59:01+00:00,364.3763,9.99,12.97,47.84626,-54.09684
2020-06-06 01:09:01+00:00,365.3829,9.99,12.97,47.84626,-54.09684
2020-06-06 01:19:01+00:00,357.7863,10.0,12.81,47.84626,-54.09684
2020-06-06 01:29:01+00:00,346.0696,10.06,12.81,47.84626,-54.09684
2020-06-06 01:39:01+00:00,337.4679,10.09,12.81,47.84626,-54.09684
2020-06-06 01:49:01+00:00,328.9797,10.09,12.81,47.84626,-54.09684
2020-06-06 01:59:01+00:00,320.3314,10.1,12.81,47.84626,-54.09684
2020-06-06 02:09:01+00:00,313.7846,10.1,12.81,47.84626,-54.09684
2020-06-06 02:19:01+00:00,307.928,10.1,12.73,47.84626,-54.09684
2020-06-06 02:29:01+00:00,299.3331,10.1,12.73,47.84626,-54.09684
2020-06-06 02:39:01+00:00,286.3531,10.19,12.73,47.84626,-54.09684
2020-06-06 02:49:01+00:00,279.3347,10.12,12.73,47.84626,-54.09684
2020-06-06 02:59:01+00:00,269.4564,10.17,12.73,47.84626,-54.09684
2020-06-06 03:09:01+00:00,260.9181,10.1,12.73,47.84626,-54.09684
2020-06-06 03:19:01+00:00,251.1847,10.3,12.73,47.84626,-54.09684
2020-06-06 03:29:01+00:00,239.7114,10.48,12.73,47.84626,-54.09684
2020-06-06 03:39:01+00:00,231.0264,10.6,12.73,47.84626,-54.09684
2020-06-06 03:49:01+00:00,223.8264,10.62,12.73,47.84626,-54.09684
2020-06-06 03:59:01+00:00,215.2747,10.69,12.73,47.84626,-54.09684
2020-06-06 04:09:01+00:00,206.7365,10.6,12.73,47.84626,-54.09684
2020-06-06 04:19:01+00:00,202.1765,10.67,12.73,47.84626,-54.09684
2020-06-06 04:29:01+00:00,196.8498,10.7,12.73,47.84626,-54.09684
2020-06-06 04:39:01+00:00,189.3881,10.7,12.73,47.84626,-54.09684
2020-06-06 04:49:01+00:00,187.3115,10.6,12.73,47.84626,-54.09684
2020-06-06 04:59:01+00:00,187.3898,10.6,12.73,47.84626,-54.09684
2020-06-06 05:09:01+00:00,177.8098,10.5,12.73,47.84626,-54.09684
2020-06-06 05:19:01+00:00,170.3648,10.4,12.73,47.84626,-54.09684
2020-06-06 05:29:01+00:00,172.8198,10.4,12.73,47.84626,-54.09684
2020-06-06 05:39:01+00:00,176.5048,10.4,12.73,47.84626,-54.09684
2020-06-06 05:49:01+00:00,174.5131,10.35,12.73,47.84626,-54.09684
2020-06-06 05:59:01+00:00,174.4514,10.39,12.73,47.84626,-54.09684
2020-06-06 06:09:01+00:00,180.6898,10.39,12.73,47.84626,-54.09684
2020-06-06 06:19:01+00:00,182.6581,10.4,12.73,47.84626,-54.09684
2020-06-06 06:29:01+00:00,181.9598,10.4,12.73,47.84626,-54.09684
2020-06-06 06:39:01+00:00,184.8115,10.4,12.73,47.84626,-54.09684
2020-06-06 06:49:01+00:00,193.1831,10.39,12.73,47.84626,-54.09684
2020-06-06 06:59:01+00:00,194.2465,10.4,12.73,47.84626,-54.09684
2020-06-06 07:09:01+00:00,195.2348,10.46,12.73,47.84626,-54.09684
2020-06-06 07:19:01+00:00,203.8248,10.4,12.73,47.84626,-54.09684
2020-06-06 07:29:01+00:00,202.7464,10.4,12.73,47.84626,-54.09684
2020-06-06 07:39:01+00:00,199.3631,10.48,12.73,47.84626,-54.09684
2020-06-06 07:49:01+00:00,206.5848,10.49,12.73,47.84626,-54.09684
2020-06-06 07:59:01+00:00,216.328,10.46,12.73,47.84626,-54.09684
2020-06-06 08:09:01+00:00,218.1115,10.43,12.73,47.84626,-54.09684
2020-06-06 08:19:01+00:00,222.5048,10.4,12.73,47.84626,-54.09684
2020-06-06 08:29:01+00:00,228.3898,10.4,12.73,47.84626,-54.09684
2020-06-06 08:39:01+00:00,232.1115,10.18,12.73,47.84626,-54.09684
2020-06-06 08:49:01+00:00,235.1148,10.31,12.73,47.84626,-54.09684
2020-06-06 08:59:01+00:00,241.0331,10.3,12.73,47.84626,-54.09684
2020-06-06 09:09:01+00:00,249.7314,9.7,12.73,47.84626,-54.09684
2020-06-06 09:19:01+00:00,258.613,9.6,12.73,47.84626,-54.09684
2020-06-06 09:29:01+00:00,262.6448,9.5,12.73,47.84626,-54.09684
2020-06-06 09:39:01+00:00,267.4781,9.4,12.73,47.84626,-54.09684
2020-06-06 09:49:01+00:00,279.3047,9.3,12.73,47.84626,-54.09684
2020-06-06 09:59:01+00:00,290.7981,9.4,12.73,47.84626,-54.09684
2020-06-06 10:09:01+00:00,296.0681,9.4,12.73,47.84626,-54.09684
2020-06-06 10:19:01+00:00,304.1464,9.3,12.73,47.84626,-54.09684
2020-06-06 10:29:01+00:00,314.7113,9.2,12.73,47.84626,-54.09684
2020-06-06 10:39:01+00:00,323.538,8.9,12.73,47.84626,-54.09684
2020-06-06 10:49:01+00:00,326.5846,9.0,12.73,47.84626,-54.09684
2020-06-06 10:59:01+00:00,335.2629,8.79,12.73,47.84626,-54.09684
2020-06-06 11:09:01+00:00,342.1146,8.2,12.73,47.84626,-54.09684
2020-06-06 11:19:01+00:00,343.4814,8.49,12.89,47.84626,-54.09684
2020-06-06 11:29:01+00:00,344.418,8.9,12.89,47.84626,-54.09684
2020-06-06 11:39:01+00:00,348.2263,8.89,12.89,47.84626,-54.09684
2020-06-06 11:49:01+00:00,352.1663,9.09,12.89,47.84626,-54.09684
2020-06-06 11:59:01+00:00,353.843,9.2,12.89,47.84626,-54.09684
2020-06-06 12:09:01+00:00,353.473,9.46,12.89,47.84626,-54.09684
2020-06-06 12:19:01+00:00,356.4696,9.4,13.21,47.84626,-54.09684
2020-06-06 12:29:01+00:00,356.8096,9.49,13.21,47.84626,-54.09684
2020-06-06 12:39:01+00:00,357.9913,9.58,13.21,47.84626,-54.09684
2020-06-06 12:49:01+00:00,353.5262,9.6,13.21,47.84626,-54.09684
2020-06-06 12:59:01+00:00,346.3246,9.73,13.21,47.84626,-54.09684
2020-06-06 13:09:01+00:00,342.9229,10.03,13.21,47.84626,-54.09684
2020-06-06 13:19:01+00:00,342.6647,10.1,13.37,47.84626,-54.09684
2020-06-06 13:29:01+00:00,338.8130000000001,10.0,13.37,47.84626,-54.09684
2020-06-06 13:39:01+00:00,331.2097,10.1,13.37,47.84626,-54.09684
2020-06-06 13:49:01+00:00,328.6647,10.1,13.37,47.84626,-54.09684
2020-06-06 13:59:01+00:00,324.9596,10.1,13.37,47.84626,-54.09684
2020-06-06 14:09:01+00:00,319.7681,10.14,13.37,47.84626,-54.09684
2020-06-06 14:19:01+00:00,311.3047,10.2,13.76,47.84626,-54.09684
2020-06-06 14:29:01+00:00,301.5964,10.2,13.76,47.84626,-54.09684
2020-06-06 14:39:01+00:00,290.9464,10.18,13.76,47.84626,-54.09684
2020-06-06 14:49:01+00:00,282.9964,10.2,13.76,47.84626,-54.09684
2020-06-06 14:59:01+00:00,272.4581,10.16,13.76,47.84626,-54.09684
2020-06-06 15:09:01+00:00,262.7697,10.24,13.76,47.84626,-54.09684
2020-06-06 15:19:01+00:00,253.1364,10.3,14.0,47.84626,-54.09684
2020-06-06 15:29:01+00:00,242.8014,10.3,14.0,47.84626,-54.09684
2020-06-06 15:39:01+00:00,231.8415,10.46,14.0,47.84626,-54.09684
2020-06-06 15:49:01+00:00,223.1647,10.56,14.0,47.84626,-54.09684
2020-06-06 15:59:01+00:00,216.2014,10.56,14.0,47.84626,-54.09684
2020-06-06 16:09:01+00:00,206.3765,10.6,14.0,47.84626,-54.09684
2020-06-06 16:19:01+00:00,196.7065,10.5,14.08,47.84626,-54.09684
2020-06-06 16:29:01+00:00,189.8148,10.42,14.08,47.84626,-54.09684
2020-06-06 16:39:01+00:00,181.4648,10.5,14.08,47.84626,-54.09684
2020-06-06 16:49:01+00:00,174.9014,10.57,14.08,47.84626,-54.09684
2020-06-06 16:59:01+00:00,171.9648,10.6,14.08,47.84626,-54.09684
2020-06-06 17:09:01+00:00,170.5198,10.66,14.08,47.84626,-54.09684
2020-06-06 17:19:01+00:00,170.2599,10.62,14.16,47.84626,-54.09684
2020-06-06 17:29:01+00:00,173.8648,10.5,14.16,47.84626,-54.09684
2020-06-06 17:39:01+00:00,174.5365,10.5,14.16,47.84626,-54.09684
2020-06-06 17:49:01+00:00,175.1215,10.2,14.16,47.84626,-54.09684
2020-06-06 17:59:01+00:00,175.7448,10.0,14.16,47.84626,-54.09684
2020-06-06 18:09:01+00:00,177.6298,9.9,14.16,47.84626,-54.09684
2020-06-06 18:19:01+00:00,184.3382,9.7,13.92,47.84626,-54.09684
2020-06-06 18:29:01+00:00,189.8698,9.6,13.92,47.84626,-54.09684
2020-06-06 18:39:01+00:00,192.8548,9.5,13.92,47.84626,-54.09684
2020-06-06 18:49:01+00:00,196.2915,9.5,13.92,47.84626,-54.09684
2020-06-06 18:59:01+00:00,200.7431,9.5,13.92,47.84626,-54.09684
2020-06-06 19:09:01+00:00,206.1497,9.4,13.92,47.84626,-54.09684
2020-06-06 19:19:01+00:00,206.3148,9.3,14.0,47.84626,-54.09684
2020-06-06 19:29:01+00:00,208.5898,9.3,14.0,47.84626,-54.09684
2020-06-06 19:39:01+00:00,215.2181,9.3,14.0,47.84626,-54.09684
2020-06-06 19:49:01+00:00,221.0181,9.2,14.0,47.84626,-54.09684
2020-06-06 19:59:01+00:00,223.0414,9.1,14.0,47.84626,-54.09684
2020-06-06 20:09:01+00:00,227.6081,9.06,14.0,47.84626,-54.09684
2020-06-06 20:19:01+00:00,232.7231,9.0,13.76,47.84626,-54.09684
2020-06-06 20:29:01+00:00,240.5297,8.8,13.76,47.84626,-54.09684
2020-06-06 20:39:01+00:00,245.2214,8.6,13.76,47.84626,-54.09684
2020-06-06 20:49:01+00:00,247.183,8.6,13.76,47.84626,-54.09684
2020-06-06 20:59:01+00:00,248.9948,8.8,13.76,47.84626,-54.09684
2020-06-06 21:09:01+00:00,253.8531,8.5,13.76,47.84626,-54.09684
2020-06-06 21:19:01+00:00,262.1281,8.3,13.53,47.84626,-54.09684
2020-06-06 21:29:01+00:00,273.1248,8.2,13.53,47.84626,-54.09684
2020-06-06 21:39:01+00:00,284.743,8.0,13.53,47.84626,-54.09684
2020-06-06 21:49:01+00:00,292.5331,7.99,13.53,47.84626,-54.09684
2020-06-06 21:59:01+00:00,301.9963,8.0,13.53,47.84626,-54.09684
2020-06-06 22:09:01+00:00,316.0696,7.9,13.53,47.84626,-54.09684
2020-06-06 22:19:01+00:00,327.163,7.9,13.21,47.84626,-54.09684
2020-06-06 22:29:01+00:00,333.348,7.9,13.21,47.84626,-54.09684
2020-06-06 22:39:01+00:00,339.838,7.84,13.21,47.84626,-54.09684
2020-06-06 22:49:01+00:00,350.1545,7.9,13.21,47.84626,-54.09684
2020-06-06 22:59:01+00:00,354.4879,7.88,13.21,47.84626,-54.09684
2020-06-06 23:09:01+00:00,363.0913,7.85,13.21,47.84626,-54.09684
2020-06-06 23:19:01+00:00,375.9629,7.9,12.89,47.84626,-54.09684
2020-06-06 23:29:01+00:00,383.1246,7.89,12.89,47.84626,-54.09684
2020-06-06 23:39:01+00:00,383.2629,7.88,12.89,47.84626,-54.09684
2020-06-06 23:49:01+00:00,387.8179,7.9,12.89,47.84626,-54.09684
2020-06-06 23:59:01+00:00,391.9213,7.9,12.89,47.84626,-54.09684
